Location: Bakhuizen
(52.8696°N, 5.4575°E)
Time: 14:10:38
(UTC+00:00)

ATLAS 2AS CENTAUR R/B - Pass Details

Date: 11 May 2021
Orbit: 949 x 1263 km, 63.7° (Epoch: 07 May)

Event Time Altitude Azimuth Distance (km) Brightness Sun altitude
Rises 21:21:29 0° 313° (NW) 4,141 7.4 -13.4°
Reaches altitude 10° 21:24:19 10° 313° (NW) 3,138 6.4 -13.6°
Maximum altitude 21:31:52 86° 226° (SW) 1,142 2.8 -14.2°
Enters shadow 21:37:04 19° 139° (SE) 2,300 3.8 -14.6°
